Tracking 28125 objects as of 2-Oct-2023
HD Live streaming from Space Station
objects crossing your sky now

USA 324

Track USA 324 now!


NORAD ID: 51280
Int'l Code: 2022-006A
Perigee: 35,755.3 km
Apogee: 35,762.0 km
Inclination: 1.1 °
Period: 1,434.3 minutes
Semi major axis: 42129 km
RCS: Unknown
Launch date: January 21, 2022
Source: United States (US)
Launch site: AIR FORCE EASTERN TEST RANGE (AFETR)
Your satellite tracking list
Your tracking list is empty




NASA's NSSDC Master Catalog

Two Line Element Set (TLE):
1 51280U 22006A   23255.36624483 -.00000053  00000-0  00000+0 0  9997
2 51280   1.1011  92.3395 0000790 170.2202  24.8459  1.00397066  6014
Source of the keplerian elements: McCants